This is the latest recevied weather packets stored in our database for station/object Reichnbch. If no packets are shown the sender has not sent any weather packets the latest 10 day(s).
| Time | Temp. | Humidity | Pressure | Rain* | Wind** | Luminosity | Snow |
|---|---|---|---|---|---|---|---|
| 1777820530 | 23.33° C | 37% | 1013.1 hPa | 0 mm | - | - | - |
| 1777818730 | 24.44° C | 39% | 1013.2 hPa | 0 mm | - | - | - |
| 1777816930 | 25° C | 37% | 1013.4 hPa | 0 mm | - | - | - |
| 1777815131 | 24.44° C | 36% | 1013.9 hPa | 0 mm | - | - | - |
| 1777813330 | 23.33° C | 42% | 1014.4 hPa | 0 mm | - | - | - |
| 1777811536 | 23.89° C | 41% | 1014.6 hPa | 0 mm | - | - | - |
| 1777809730 | 25° C | 43% | 1014.9 hPa | 0 mm | - | - | - |
| 1777807932 | 23.89° C | 46% | 1015.1 hPa | 0 mm | - | - | - |
| 1777806130 | 23.33° C | 42% | 1015.3 hPa | 0 mm | - | - | - |
| 1777804332 | 22.78° C | 46% | 1015.6 hPa | 0 mm | - | - | - |
| 1777802532 | 22.22° C | 52% | 1015.9 hPa | 0 mm | - | - | - |
| 1777800731 | 20.56° C | 48% | 1016.3 hPa | 0 mm | - | - | - |
| 1777798930 | 19.44° C | 57% | 1016.6 hPa | 0 mm | - | - | - |
| 1777797132 | 17.22° C | 62% | 1016.9 hPa | 0 mm | - | - | - |
| 1777795332 | 15.56° C | 66% | 1016.9 hPa | 0 mm | - | - | - |
| 1777793531 | 15° C | 73% | 1016.8 hPa | 0 mm | - | - | - |
| 1777791731 | 12.78° C | 78% | 1016.8 hPa | 0 mm | - | - | - |
| 1777789931 | 11.67° C | 82% | 1016.9 hPa | 0 mm | - | - | - |
| 1777788131 | 10.56° C | 84% | 1016.8 hPa | 0 mm | - | - | - |
| 1777786331 | 8.33° C | 84% | 1016.8 hPa | 0 mm | - | - | - |
| 1777784533 | 7.78° C | 84% | 1016.8 hPa | 0 mm | - | - | - |
| 1777782731 | 8.33° C | 84% | 1016.8 hPa | 0 mm | - | - | - |
| 1777780930 | 8.89° C | 82% | 1016.7 hPa | 0 mm | - | - | - |
| 1777779131 | 8.89° C | 81% | 1016.7 hPa | 0 mm | - | - | - |
| 1777777331 | 9.44° C | 80% | 1016.6 hPa | 0 mm | - | - | - |
* Rain since midnight (hover to see other rain measurements)
** Current wind speed in m/s (hover to see current wind gust speed)